DW8587 Weather Reports


time (UTC)temp
C
wind
direction
speed
KPH
gust
KPH
rain 1hr
cm
rain 24hr
cm
rain mn
cm
humidity
%
barometer
mb
20260502223051 12 35 4.8 8.0 0.00 0.00 0.00 72 1020.1
20260502221550 12 351 3.2 6.4 0.00 0.00 0.00 72 1020.1
20260502220052 12 56 3.2 6.4 0.00 0.00 0.00 71 1020.1
20260502214547 13 48 3.2 6.4 0.00 0.00 0.00 70 1020.0
20260502213047 13 39 3.2 6.4 0.00 0.00 0.00 70 1020.0
20260502211549 13 13 3.2 6.4 0.00 0.00 0.00 69 1020.0
20260502210055 13 47 3.2 8.0 0.00 0.00 0.00 68 1020.1
20260502204545 14 35 3.2 6.4 0.00 0.00 0.00 68 1020.1
20260502203049 15 24 1.6 4.8 0.00 0.00 0.00 66 1020.1
20260502201545 15 48 1.6 4.8 0.00 0.00 0.00 65 1020.2
20260502200044 15 48 3.2 6.4 0.00 0.00 0.00 64 1020.1
20260502194543 16 48 3.2 6.4 0.00 0.00 0.00 62 1019.9
20260502193043 16 39 1.6 3.2 0.00 0.00 0.00 60 1019.8
20260502191542 17 35 4.8 6.4 0.00 0.00 0.00 57 1019.8
20260502190042 18 35 3.2 4.8 0.00 0.00 0.00 53 1019.7
20260502184549 19 223 0.0 1.6 0.00 0.00 0.00 48 1019.6
20260502183042 20 223 0.0 1.6 0.00 0.00 0.00 46 1019.6
20260502181539 21 223 0.0 0.0 0.00 0.00 0.00 45 1019.6
20260502163034 22 174 1.6 11.3 0.00 0.00 0.00 38 1019.6
20260502161531 22 207 6.4 14.5 0.00 0.00 0.00 38 1019.8
20260502151525 22 255 3.2 12.9 0.00 0.00 0.00 39 1020.3
20260502123105 21 115 6.4 16.1 0.00 0.00 0.00 43 1022.6
20260502121604 21 140 4.8 16.1 0.00 0.00 0.00 42 1022.8
20260502114552 21 194 8.0 17.7 0.00 0.00 0.00 44 1023.2
20260502113054 20 241 8.0 14.5 0.00 0.00 0.00 44 1023.4
20260502111555 20 327 3.2 12.9 0.00 0.00 0.00 44 1023.7
20260502110049 20 123 4.8 14.5 0.00 0.00 0.00 44 1023.9
20260502104546 20 256 8.0 16.1 0.00 0.00 0.00 43 1024.2
20260502103051 19 134 1.6 16.1 0.00 0.00 0.00 47 1024.5
20260502101600 19 91 1.6 11.3 0.00 0.00 0.00 46 1024.6
20260502071508 16 192 3.2 4.8 0.00 0.00 0.00 55 1025.7
20260502070011 16 98 1.6 4.8 0.00 0.00 0.00 57 1025.9
20260502064506 16 48 3.2 6.4 0.00 0.00 0.00 61 1025.9
20260502063105 15 57 0.0 3.2 0.00 0.00 0.00 66 1026.0
20260502061554 14 40 3.2 6.4 0.00 0.00 0.00 69 1025.8
20260502054548 12 38 3.2 8.0 0.00 0.00 0.00 75 1025.9
20260502053052 11 35 4.8 8.0 0.00 0.00 0.00 77 1025.9
20260502051546 10 40 4.8 8.0 0.00 0.00 0.00 79 1025.9
20260502050032 9 28 4.8 9.7 0.00 0.00 0.00 81 1025.8
20260502044528 8 39 4.8 9.7 0.00 0.00 0.00 81 1025.8
20260502043025 8 38 6.4 9.7 0.00 0.00 0.00 81 1025.8
20260502041526 8 11 4.8 8.0 0.00 0.00 0.00 81 1025.7
20260502040024 8 45 4.8 6.4 0.00 0.00 0.00 81 1025.7
20260502034518 8 12 3.2 6.4 0.00 0.00 0.00 80 1025.7
20260502033018 8 5 3.2 6.4 0.00 0.00 0.00 80 1025.6
20260502031516 8 5 3.2 6.4 0.00 0.00 0.00 80 1025.6
20260502030015 8 19 3.2 6.4 0.00 0.00 0.00 80 1025.6
20260502024514 8 360 3.2 6.4 0.00 0.00 0.00 79 1025.5
20260502023013 8 360 3.2 6.4 0.00 0.00 0.00 79 1025.5
20260502021511 8 43 4.8 6.4 0.00 0.00 0.00 79 1025.5
20260502020016 8 53 3.2 6.4 0.00 0.00 0.00 79 1025.4
20260502014510 8 53 3.2 8.0 0.00 0.00 0.00 79 1025.3
20260502013008 8 46 3.2 6.4 0.00 0.00 0.00 79 1025.4
20260502011521 8 44 4.8 8.0 0.00 0.00 0.00 78 1025.3
20260502010005 9 43 3.2 8.0 0.00 0.00 0.00 78 1025.3
20260502004504 9 44 1.6 4.8 0.00 0.00 0.00 77 1025.4
20260502003005 9 42 4.8 8.0 0.00 0.00 0.00 77 1025.4
20260502001502 9 44 1.6 4.8 0.00 0.00 0.00 77 1025.5
20260502000001 9 32 1.6 6.4 0.00 0.00 0.00 77 1025.5
20260501234559 9 41 3.2 6.4 0.00 0.00 0.00 77 1025.5
20260501233059 10 39 4.8 6.4 0.00 0.00 0.00 76 1025.5
20260501231602 10 26 3.2 8.0 0.00 0.00 0.00 76 1025.5
20260501230054 10 355 3.2 6.4 0.00 0.00 0.00 76 1025.5
20260501224559 10 38 3.2 6.4 0.00 0.00 0.00 75 1025.5